Change the Weather History Date:

Wednesday, October 31, 2012

  Actual Average (KGRR) Record (KGRR)
Temperature  
Mean Temperature 38 °F 46 °F  
Max Temperature 41 °F 55 °F 79 °F (1950)
Min Temperature 36 °F 38 °F 20 °F (1988)
Degree Days  
Heating Degree Days 26 19  
Month to date heating degree days 439  
Since 1 July heating degree days 592  
Cooling Degree Days 0 0  
Month to date cooling degree days 7  
Year to date cooling degree days 699  
Moisture  
Dew Point 36 °F    
Average Humidity 88    
Maximum Humidity 95    
Minimum Humidity 78    
Precipitation  
Precipitation 0.00 in 0.11 in 1.27 in (1994)
Month to date precipitation 3.26  
Year to date precipitation 32.26  
Snow  
Snow 0.00 in 0.00 in 1.50 in (1917)
Month to date snowfall 0.5  
Since 1 July snowfall 0.5  
Since 1 September snowfall 0.5  
Snow Depth -    
Sea Level Pressure  
Sea Level Pressure 29.64 in    
Wind  
Wind Speed 10 mph (NW)    
Max Wind Speed 16 mph    
Max Gust Speed 21 mph    
Visibility 8 miles    
Events Rain    
T = Trace of Precipitation, MM = Missing Value Source: NWS Daily Summary

Daily Weather History Graph

Daily Weather History Graph

Search for Another Location

Airport or City:

Trip Planner

Search our weather history database for the weather conditions in past years. The results will help you decide how hot, cold, wet, or windy it might be!

Date:

Astronomy

Oct. 31, 2012 Rise Set
Actual Time 8:13 AM EDT 6:33 PM EDT
Civil Twilight 7:44 AM EDT 7:02 PM EDT
Nautical Twilight 7:11 AM EDT 7:35 PM EDT
Astronomical Twilight 6:38 AM EDT 8:08 PM EDT
Moon 7:40 PM EDT (10/31) 9:57 AM EDT (10/31)
Length of Visible Light 11h 18m
Length of Day
10h 19m
Full, 97% of the Moon is Illuminated
Oct 31
Full
Nov 6
Last Quarter
Nov 13
New
Nov 20
First Quarter
Nov 28
Full

Hourly Weather History & Observations

Time (EDT) Temp. Windchill Dew Point Humidity Pressure Visibility Wind Dir Wind Speed Gust Speed Precip Events Conditions
12:14 AM 37.4 °F 28.9 °F 34.7 °F 90% 29.61 in 7.0 mi NNW 13.8 mph 20.7 mph N/A   Light Drizzle
12:34 AM 37.0 °F 31.0 °F 34.7 °F 91% 29.61 in 7.0 mi North 8.1 mph - N/A   Overcast
12:54 AM 37.0 °F 30.4 °F 34.5 °F 91% 29.60 in 7.0 mi NNW 9.2 mph 16.1 mph N/A   Overcast
1:14 AM 37.0 °F 30.4 °F 34.3 °F 90% 29.60 in 7.0 mi NNW 9.2 mph 18.4 mph N/A   Overcast
1:34 AM 36.9 °F 31.4 °F 35.1 °F 93% 29.60 in 4.0 mi NNW 6.9 mph - N/A   Overcast
1:54 AM 36.7 °F 31.2 °F 34.9 °F 93% 29.60 in 5.0 mi NNW 6.9 mph - N/A   Overcast
2:14 AM 36.9 °F 30.7 °F 35.2 °F 94% 29.60 in 4.0 mi NNW 8.1 mph - N/A   Overcast
2:34 AM 36.9 °F 30.7 °F 35.6 °F 95% 29.60 in 5.0 mi NW 8.1 mph - N/A   Overcast
2:54 AM 36.9 °F 30.1 °F 35.2 °F 94% 29.60 in 10.0 mi NNW 9.2 mph - N/A   Overcast
3:14 AM 36.9 °F 29.1 °F 34.9 °F 93% 29.60 in 10.0 mi NNW 11.5 mph 17.3 mph N/A   Overcast
3:34 AM 37.0 °F 29.8 °F 34.7 °F 91% 29.60 in 10.0 mi NNW 10.4 mph 16.1 mph N/A   Overcast
3:54 AM 36.9 °F 30.1 °F 34.7 °F 92% 29.60 in 7.0 mi NNW 9.2 mph - N/A   Overcast
4:14 AM 36.9 °F 30.1 °F 34.9 °F 93% 29.59 in 7.0 mi NNW 9.2 mph - N/A   Overcast
4:34 AM 37.0 °F 30.4 °F 34.7 °F 91% 29.59 in 10.0 mi NNW 9.2 mph - N/A   Overcast
4:54 AM 37.0 °F 32.4 °F 34.7 °F 91% 29.60 in 10.0 mi NNW 5.8 mph 9.2 mph N/A   Overcast
5:14 AM 37.0 °F 31.0 °F 34.7 °F 91% 29.60 in 7.0 mi NNW 8.1 mph - N/A   Overcast
5:34 AM 37.0 °F 31.6 °F 34.7 °F 91% 29.60 in 10.0 mi NNW 6.9 mph - N/A   Overcast
5:54 AM 37.4 °F 30.3 °F 34.7 °F 90% 29.61 in 7.0 mi NNW 10.4 mph 17.3 mph N/A Rain Rain
6:14 AM 37.4 °F 31.4 °F 34.7 °F 90% 29.61 in 10.0 mi NNW 8.1 mph - N/A   Overcast
6:34 AM 37.6 °F 30.0 °F 34.7 °F 89% 29.61 in 10.0 mi NNW 11.5 mph - N/A   Overcast
6:54 AM 37.6 °F 30.0 °F 34.7 °F 89% 29.61 in 7.0 mi NW 11.5 mph - N/A   Overcast
7:14 AM 37.4 °F 31.4 °F 35.1 °F 91% 29.61 in 7.0 mi NW 8.1 mph - N/A   Overcast
7:34 AM 37.6 °F 32.3 °F 34.7 °F 89% 29.61 in 10.0 mi NW 6.9 mph - N/A   Overcast
7:54 AM 37.9 °F 33.5 °F 34.3 °F 87% 29.61 in 10.0 mi NNW 5.8 mph - N/A   Overcast
8:14 AM 37.9 °F 33.5 °F 34.5 °F 87% 29.62 in 10.0 mi NNW 5.8 mph - N/A   Overcast
8:34 AM 37.9 °F 33.5 °F 34.7 °F 88% 29.62 in 10.0 mi NW 5.8 mph - N/A   Overcast
8:54 AM 38.5 °F 32.1 °F 34.7 °F 86% 29.62 in 10.0 mi NW 9.2 mph - N/A   Overcast
9:14 AM 38.5 °F 32.7 °F 35.6 °F 89% 29.62 in 10.0 mi NW 8.1 mph - N/A   Overcast
9:34 AM 38.5 °F 31.6 °F 35.6 °F 89% 29.63 in 10.0 mi NW 10.4 mph - N/A   Overcast
9:54 AM 38.7 °F 31.8 °F 36.0 °F 90% 29.63 in 10.0 mi WNW 10.4 mph 16.1 mph N/A   Overcast
10:14 AM 39.0 °F 32.8 °F 36.0 °F 89% 29.63 in 10.0 mi NW 9.2 mph 17.3 mph N/A   Overcast
10:34 AM 39.2 °F 32.5 °F 36.0 °F 88% 29.62 in 10.0 mi WNW 10.4 mph 18.4 mph N/A   Overcast
10:54 AM 39.4 °F 31.4 °F 35.8 °F 87% 29.62 in 10.0 mi NW 13.8 mph 18.4 mph N/A   Overcast
11:14 AM 40.1 °F 33.2 °F 36.0 °F 85% 29.62 in 10.0 mi NW 11.5 mph - N/A   Overcast
11:34 AM 40.6 °F 34.3 °F 36.0 °F 83% 29.62 in 10.0 mi NW 10.4 mph 18.4 mph N/A   Overcast
11:54 AM 41.0 °F 33.1 °F 35.6 °F 81% 29.62 in 10.0 mi NW 15.0 mph 18.4 mph N/A   Overcast
12:19 PM 41.5 °F 35.4 °F 35.6 °F 79% 29.62 in 10.0 mi NW 10.4 mph 19.6 mph N/A   Overcast
12:34 PM 41.2 °F 34.1 °F 35.4 °F 80% 29.62 in 10.0 mi NW 12.7 mph 20.7 mph N/A   Overcast
12:54 PM 41.9 °F 36.9 °F 35.6 °F 78% 29.63 in 10.0 mi NW 8.1 mph 17.3 mph N/A   Overcast
1:14 PM 41.9 °F 35.9 °F 35.6 °F 78% 29.63 in 10.0 mi NW 10.4 mph - N/A   Overcast
1:34 PM 41.9 °F 34.6 °F 35.6 °F 78% 29.62 in 10.0 mi NNW 13.8 mph 18.4 mph N/A   Overcast
1:54 PM 41.4 °F 34.0 °F 36.0 °F 81% 29.63 in 7.0 mi NW 13.8 mph 19.6 mph N/A   Light Drizzle
2:19 PM 41.2 °F 34.1 °F 37.2 °F 86% 29.63 in 7.0 mi NW 12.7 mph 17.3 mph N/A   Overcast
2:34 PM 41.2 °F 35.5 °F 36.9 °F 85% 29.63 in 10.0 mi NW 9.2 mph 17.3 mph N/A   Overcast
3:14 PM 41.0 °F 34.3 °F 37.8 °F 88% 29.63 in 7.0 mi WNW 11.5 mph 17.3 mph N/A   Drizzle
3:34 PM 40.5 °F 32.1 °F 38.1 °F 91% 29.63 in 2.0 mi WNW 16.1 mph 19.6 mph N/A Rain Light Rain
3:54 PM 40.3 °F 33.4 °F 38.5 °F 93% 29.63 in 2.0 mi WNW 11.5 mph 16.1 mph N/A Rain Rain
4:14 PM 40.1 °F 33.6 °F 38.3 °F 93% 29.64 in 2.0 mi NW 10.4 mph 17.3 mph N/A Rain Light Rain
4:34 PM 40.1 °F 34.7 °F 38.3 °F 93% 29.64 in 2.0 mi NW 8.1 mph - N/A Rain Heavy Rain
4:54 PM 40.3 °F 32.6 °F 38.5 °F 93% 29.64 in 5.0 mi WNW 13.8 mph - N/A   Overcast
5:14 PM 40.3 °F 32.6 °F 38.3 °F 93% 29.65 in 7.0 mi WNW 13.8 mph 18.4 mph N/A Rain Rain
5:34 PM 40.1 °F 34.1 °F 38.1 °F 93% 29.65 in 5.0 mi NW 9.2 mph 17.3 mph N/A   Light Drizzle
5:54 PM 40.3 °F 33.9 °F 38.5 °F 93% 29.65 in 10.0 mi WNW 10.4 mph - N/A   Overcast
6:14 PM 40.1 °F 32.4 °F 37.4 °F 90% 29.66 in 7.0 mi NW 13.8 mph 19.6 mph N/A Rain Rain
6:34 PM 40.1 °F 34.1 °F 37.9 °F 92% 29.67 in 10.0 mi WNW 9.2 mph - N/A   Light Drizzle
6:54 PM 39.9 °F 33.9 °F 37.8 °F 92% 29.67 in 10.0 mi WNW 9.2 mph - N/A   Light Drizzle
7:14 PM 40.1 °F 33.2 °F 37.4 °F 90% 29.68 in 10.0 mi WNW 11.5 mph - N/A   Overcast
7:34 PM 40.1 °F 33.2 °F 36.9 °F 88% 29.68 in 10.0 mi WNW 11.5 mph - N/A   Overcast
7:54 PM 39.9 °F 33.9 °F 37.0 °F 89% 29.69 in 10.0 mi WNW 9.2 mph - N/A Rain Light Rain
8:14 PM 40.1 °F 33.2 °F 36.9 °F 88% 29.69 in 10.0 mi WNW 11.5 mph 16.1 mph N/A   Light Drizzle
8:34 PM 40.1 °F 32.7 °F 36.7 °F 88% 29.70 in 10.0 mi NW 12.7 mph 18.4 mph N/A   Overcast
8:54 PM 40.3 °F 33.4 °F 36.5 °F 86% 29.69 in 10.0 mi NW 11.5 mph 18.4 mph N/A   Overcast
9:14 PM 40.3 °F 33.0 °F 36.7 °F 87% 29.70 in 10.0 mi NW 12.7 mph 19.6 mph N/A Rain Light Rain
9:34 PM 40.3 °F 33.9 °F 36.5 °F 86% 29.70 in 10.0 mi WNW 10.4 mph - N/A   Overcast
9:54 PM 40.5 °F 33.2 °F 35.6 °F 83% 29.70 in 10.0 mi NW 12.7 mph - N/A   Drizzle
10:14 PM 40.3 °F 33.4 °F 35.6 °F 83% 29.70 in 10.0 mi NW 11.5 mph 20.7 mph N/A   Overcast
10:34 PM 40.6 °F 33.8 °F 35.6 °F 82% 29.70 in 10.0 mi NW 11.5 mph 19.6 mph N/A   Overcast
10:54 PM 40.8 °F 34.5 °F 35.6 °F 82% 29.70 in 10.0 mi NW 10.4 mph 18.4 mph N/A   Overcast
11:14 PM 41.0 °F 34.7 °F 35.4 °F 81% 29.70 in 10.0 mi NW 10.4 mph 19.6 mph N/A   Overcast
11:34 PM 41.0 °F 33.5 °F 35.6 °F 81% 29.70 in 10.0 mi NW 13.8 mph 19.6 mph N/A   Overcast
11:54 PM 41.2 °F 34.5 °F 35.1 °F 79% 29.70 in 10.0 mi NW 11.5 mph 19.6 mph N/A   Overcast